Weather History for Kenosha, WI

Change the Weather History Date:

Tuesday, December 24, 2013

  Actual Average Record
Temperature  
Mean Temperature 7 °F -  
Max Temperature 16 °F 29 °F 55 °F (1955)
Min Temperature -2 °F 13 °F -29 °F (1983)
Degree Days  
Heating Degree Days 58    
Moisture  
Dew Point -2 °F    
Average Humidity 74    
Maximum Humidity 80    
Minimum Humidity 64    
Precipitation  
Precipitation 0.00 in - - ()
Sea Level Pressure  
Sea Level Pressure 30.45 in    
Wind  
Wind Speed 11 mph (WSW)    
Max Wind Speed 15 mph    
Max Gust Speed 18 mph    
Visibility 6 miles    
Events Snow    
Averages and records for this station are not official NWS values.
T = Trace of Precipitation, MM = Missing Value Source: NWS Daily Summary

Daily Weather History Graph

Daily Weather History Graph

Search for Another Location

Airport:

Trip Planner

Search our weather history database for the weather conditions in past years. The results will help you decide how hot, cold, wet, or windy it might be!

Date:

Astronomy

Dec. 24, 2013 Rise Set
Actual Time 7:19 AM CST 4:23 PM CST
Civil Twilight 6:47 AM CST 4:55 PM CST
Nautical Twilight 6:12 AM CST 5:31 PM CST
Astronomical Twilight 5:37 AM CST 6:05 PM CST
Moon 11:40 PM CST (12/24) 11:05 AM CST (12/24)
Length of Visible Light 10h 07m
Length of Day
9h 03m
Waning Gibbous, 58% of the Moon is Illuminated
Dec 24
Waning Gibbous
Dec 25
Last Quarter
Jan 1
New
Jan 7
First Quarter
Jan 15
Full

Hourly Weather History & Observations

Time (CST) Temp. Windchill Dew Point Humidity Pressure Visibility Wind Dir Wind Speed Gust Speed Precip Events Conditions
12:05 AM 1.0 °F -18.0 °F -5.1 °F 75% 30.37 in 0.8 mi West 15.0 mph - 0.00 in Snow Light Snow
12:51 AM 1.4 °F -17.6 °F -5.8 °F 72% 30.37 in 1.0 mi West 15.0 mph 18.4 mph 0.00 in Snow Light Snow
12:53 AM 1.0 °F -17.3 °F -5.1 °F 75% 30.43 in 0.8 mi West 13.8 mph - 0.00 in Snow Light Snow
1:21 AM 1.0 °F -14.9 °F -5.1 °F 75% 30.37 in 1.8 mi West 10.4 mph 18.4 mph 0.00 in Snow Light Snow
1:29 AM 1.0 °F -16.6 °F -5.1 °F 75% 30.38 in 2.0 mi West 12.7 mph - 0.00 in Snow Light Snow
1:36 AM 1.0 °F -16.6 °F -5.1 °F 75% 30.38 in 1.8 mi West 12.7 mph - 0.00 in Snow Light Snow
1:53 AM 1.0 °F -16.6 °F -5.1 °F 75% 30.44 in 1.5 mi West 12.7 mph - 0.00 in Snow Light Snow
2:02 AM 1.0 °F -18.0 °F -5.1 °F 75% 30.39 in 2.5 mi West 15.0 mph - 0.00 in Snow Light Snow
2:09 AM 1.0 °F -17.3 °F -5.1 °F 75% 30.39 in 3.0 mi West 13.8 mph - 0.00 in Snow Light Snow
2:53 AM -0.0 °F -18.0 °F -6.0 °F 76% 30.46 in 2.0 mi West 12.7 mph - 0.00 in Snow Light Snow
3:09 AM 1.0 °F -15.8 °F -6.0 °F 72% 30.41 in 4.0 mi West 11.5 mph - 0.00 in Snow Light Snow
3:53 AM 1.0 °F -14.0 °F -5.1 °F 75% 30.47 in 10.0 mi West 9.2 mph - 0.00 in   Overcast
4:24 AM 1.9 °F -14.7 °F -4.0 °F 76% 30.42 in 1.8 mi West 11.5 mph - 0.00 in Snow Light Snow
4:37 AM 1.9 °F -13.8 °F -4.0 °F 76% 30.43 in 3.0 mi West 10.4 mph - 0.00 in Snow Light Snow
4:53 AM 1.9 °F -14.7 °F -4.0 °F 76% 30.49 in 10.0 mi WNW 11.5 mph - 0.00 in   Overcast
5:53 AM -0.0 °F -15.3 °F -6.0 °F 76% 30.50 in 10.0 mi West 9.2 mph - N/A   Clear
6:53 AM -0.9 °F -16.4 °F -7.1 °F 75% 30.52 in 10.0 mi West 9.2 mph - N/A   Clear
7:53 AM -2.0 °F -18.7 °F -7.1 °F 79% 30.53 in 9.0 mi West 10.4 mph - N/A   Clear
8:53 AM -0.9 °F -16.4 °F -7.1 °F 75% 30.55 in 9.0 mi West 9.2 mph - N/A   Clear
9:53 AM 1.0 °F -14.0 °F -6.0 °F 72% 30.57 in 10.0 mi West 9.2 mph - N/A   Clear
10:53 AM 5.0 °F -8.1 °F -2.9 °F 70% 30.56 in 10.0 mi West 8.1 mph - N/A   Clear
11:53 AM 8.1 °F -5.3 °F -0.9 °F 67% 30.55 in 10.0 mi WNW 9.2 mph - N/A   Clear
12:53 PM 10.9 °F 1.4 °F 1.0 °F 64% 30.53 in 10.0 mi WNW 5.8 mph - N/A   Clear
1:53 PM 10.0 °F -0.9 °F 1.9 °F 70% 30.52 in 9.0 mi WSW 6.9 mph - N/A   Clear
2:53 PM 12.0 °F 5.9 °F 3.0 °F 67% 30.51 in 9.0 mi SW 3.5 mph - N/A   Clear
3:53 PM 12.0 °F 4.1 °F 1.9 °F 64% 30.50 in 9.0 mi SSW 4.6 mph - N/A   Clear
4:53 PM 5.0 °F -2.1 °F -2.9 °F 70% 30.51 in 8.0 mi West 3.5 mph - N/A   Clear
5:53 PM 7.0 °F - 1.0 °F 77% 30.48 in 7.0 mi Calm Calm - N/A   Clear
6:53 PM 10.0 °F 0.4 °F 1.9 °F 70% 30.47 in 7.0 mi SSW 5.8 mph - N/A   Clear
7:53 PM 6.1 °F -0.9 °F 1.0 °F 80% 30.48 in 7.0 mi SW 3.5 mph - N/A   Clear
8:53 PM 10.9 °F 1.4 °F 3.9 °F 73% 30.45 in 7.0 mi South 5.8 mph - N/A   Overcast
9:53 PM 14.0 °F 3.9 °F 7.0 °F 74% 30.43 in 8.0 mi South 6.9 mph - N/A   Overcast
10:45 PM 16.0 °F 4.4 °F 9.0 °F 74% 30.35 in 2.0 mi South 9.2 mph - 0.00 in Snow Light Snow
10:53 PM 16.0 °F 4.4 °F 9.0 °F 74% 30.40 in 1.5 mi South 9.2 mph - 0.00 in Snow Light Snow
11:03 PM 16.0 °F 3.6 °F 10.0 °F 77% 30.33 in 3.0 mi South 10.4 mph - 0.00 in Snow Light Snow
11:53 PM 16.0 °F 3.6 °F 10.0 °F 77% 30.37 in 4.0 mi South 10.4 mph - 0.00 in Snow Light Snow